Location: ??????????
(42.1626°N, 44.1160°E)
Time: 14:01:57
(UTC+00:00)

Cosmos 2219 Rocket - Pass Details

Date: 03 March 2021
Orbit: 826 x 848 km, 71.0° (Epoch: 13 April)

Event Time Altitude Azimuth Distance (km) Brightness Sun altitude
Rises 15:58:51 0° 168° (SSE) 3,350 5.2 -12.4°
Reaches altitude 10° 16:01:38 10° 156° (SSE) 2,423 4.3 -13.0°
Maximum altitude 16:06:06 25° 102° (ESE) 1,601 3.1 -13.8°
Drops below altitude 10° 16:10:36 10° 48° (NE) 2,444 4.2 -14.6°
Enters shadow 16:11:15 - 45° (NE) 2,650 4.4 -14.7°
